Voltar ao catálogo

METEOR 2-17 DEB

AtivoPO
NORAD 35366·DEBRIS·🇷🇺 Russia

Lançado Jan 30, 1988 de Plesetsk Cosmodrome

Loading…

Próximas Passagens (próximas 24 horas)

TLE

AtualizadoSource: Space-Track

Época: Sep 12, 2026, 03:04 UTC

1 35366U 88005AA  26255.12839434  .00001356  00000-0  84829-3 0  9997
2 35366  82.5272 189.6497 0017169 342.0795  78.7659 14.03953284671969

Acompanhe METEOR 2-17 DEB em tempo real com AllMySat

Download on the App Store